TIME,DELAY(SENSOR),PRES,T(CTD),SAL,OXYGEN,RAWTEMP,T(OPTODE),TCPHASE,FLUOR,BETA(BETA700),BETA(BETA412),BETA(BETA440),CDOM,C(CSC),ED(ED411.90),ED(ED443.80),ED(ED489.40),ED(ED554.70),LU(LU412.20),LU(LU443.80),LU(LU489.40),LU(LU555.00),COMP,TILTX,TILTX(TILTY),CHECK
1338219223,5802,497.0899963378906000,16.2131004333496100,36.2230987548828100,218.0426025390625000,228.8363037109375000,16.2048397064209000,33.1812095642089840,50,107,101,80,69,15446,2147482212,2147773769,2147563666,2147807488,2147313517,2147472128,2147715602,2148246500,2561,7,13,43977
1338219338,5799,486.5199890136719000,16.3780002593994140,36.2540016174316400,221.4683074951172000,223.1181945800781200,16.3786907196044920,32.9193801879882800,50,107,100,80,68,15445,2147478070,2147772900,2147562907,2147802889,2147313408,2147472987,2147716873,2148240832,2388,6,13,14880
1338219455,5804,475.4299926757812500,16.5317993164062500,36.2859001159668000,223.2279052734375000,218.1461029052734400,16.5298595428466800,32.7580909729003900,50,107,100,80,67,15446,2147481728,2147771538,2147563949,2147803483,2147312064,2147472018,2147718336,2148240027,2931,7,13,50199
1338219570,5803,464.2999877929687500,16.6525993347167970,36.3081016540527340,225.4772949218750000,214.1645050048828000,16.6509304046630860,32.5866889953613300,50,109,101,79,69,15444,2147483748,2147773037,2147560832,2147802066,2147311497,2147472996,2147713270,2148233764,3257,7,13,56414
1338219685,5801,452.8699951171875000,16.7775993347167970,36.3342018127441400,227.0229949951172000,210.1016998291015600,16.7744693756103500,32.4513702392578100,50,109,101,81,68,15446,2147487680,2147771126,2147562358,2147799908,2147316736,2147476306,2147714130,2148242020,244,7,13,51566
1338219802,5804,441.3399963378906000,16.8936004638671880,36.3582000732421900,229.1103973388672000,206.1719055175781200,16.8939800262451170,32.2915992736816400,50,107,101,80,67,15444,2147485961,2147773147,2147562194,2147798765,2147315949,2147474861,2147716178,2148240713,714,7,13,58368
1338219917,5802,430.0499877929687500,17.0128993988037100,36.3802986145019500,230.5415039062500000,202.3247070312500000,17.0109806060791000,32.1673088073730500,50,110,101,80,68,15445,2147486921,2147771657,2147558610,2147799680,2147315145,2147473572,2147718756,2148240832,951,7,13,18593
1338220032,5803,419.0700073242187500,17.1039009094238280,36.3987007141113300,231.3630981445312500,199.4033966064453000,17.0998306274414060,32.0864906311035160,50,108,101,80,67,15444,2147488868,2147771245,2147562020,2147799250,2147313792,2147477275,2147714249,2148247698,871,7,12,57760
1338220149,5804,408.0799865722656000,17.1522998809814450,36.4100990295410160,232.8865051269531200,197.6289062500000000,17.1538105010986330,31.9869594573974600,49,109,101,81,67,15443,2147488420,2147770322,2147556845,2147796269,2147314532,2147476013,2147713526,2148243584,1294,7,13,49757
1338220264,5802,397.5400085449219000,17.2469997406005860,36.4263992309570300,233.5057983398437500,194.7711029052734400,17.2407398223876950,31.9177799224853500,50,108,101,80,67,15443,2147489929,2147769362,2147560073,2147798957,2147315785,2147478308,2147715053,2148243044,2347,7,13,51827
1338220393,5801,385.9100036621094000,17.3647994995117200,36.4501991271972660,236.0644989013672000,190.6203002929687500,17.3670196533203120,31.7368106842041000,50,110,100,80,67,15440,2147488795,2147770660,2147559771,2147796873,2147313490,2147475227,2147715126,2148244269,2893,7,12,23348
1338220520,5803,374.8900146484375000,17.4608993530273440,36.4672012329101560,236.7951049804687500,187.6558074951172000,17.4572105407714840,31.6616992950439450,50,109,99,81,66,15442,2147486372,2147770459,2147563318,2147798537,2147317430,2147478262,2147712530,2148243337,2637,7,13,7738
1338220647,5803,364.0499877929687500,17.5461997985839840,36.4836006164550800,237.7221984863281200,184.9075012207031200,17.5408401489257800,31.5799999237060550,49,109,100,81,66,15442,2147491017,2147767332,2147562112,2147796617,2147314066,2147473133,2147714294,2148242395,3040,7,13,58529
1338220776,5805,353.1900024414062500,17.5886993408203120,36.4911994934082000,237.9295959472656200,183.4364929199218800,17.5856094360351560,31.5504093170166000,50,109,99,79,66,15441,2147488502,2147769517,2147565302,2147798445,2147314249,2147479286,2147713252,2148246336,79,7,13,57731
1338220903,5803,342.4299926757812500,17.6508007049560550,36.5037002563476560,238.7476959228515600,181.4629974365234400,17.6456699371337900,31.4847106933593750,50,109,100,81,66,15442,2147486345,2147768265,2147565933,2147796571,2147314203,2147480219,2147713517,2148242477,650,7,13,43777
1338221032,5804,331.2999877929687500,17.6870002746582030,36.5106010437011700,238.9429931640625000,180.2252044677734400,17.6833400726318360,31.4587707519531250,50,109,101,79,66,15440,2147486720,2147770441,2147569956,2147794706,2147315858,2147479433,2147717028,2148245394,985,7,13,41591
1338221159,5801,320.3299865722656000,17.7364006042480470,36.5167007446289060,238.5393066406250000,178.6611022949218800,17.7309494018554700,31.4567508697509770,50,111,101,81,65,15439,2147488676,2147770148,2147574189,2147798080,2147313636,2147483264,2147720018,2148245229,1607,7,13,63152
1338221286,5805,309.3399963378906000,17.7791996002197270,36.5222015380859400,238.1219940185547000,177.1970062255859400,17.7755107879638670,31.4566497802734380,50,109,101,81,67,15439,2147488658,2147774125,2147581138,2147795218,2147315428,2147483894,2147726080,2148245522,1945,7,13,27661
1338221415,5803,298.1600036621094000,17.8190002441406250,36.5270996093750000,237.8589019775390600,175.8419952392578000,17.8167591094970700,31.4509792327880860,50,110,100,79,67,15437,2147489344,2147772717,2147587492,2147795145,2147314560,2147485860,2147731620,2148245092,2310,7,12,6467
1338221542,5803,287.6099853515625000,17.8731994628906250,36.5353012084960940,237.9640960693359400,174.0693054199218800,17.8707294464111330,31.4221096038818360,50,111,101,80,67,15435,2147489225,2147780169,2147595684,2147796150,2147315172,2147488338,2147731520,2148244150,3141,7,13,55342
1338221683,5805,276.5499877929687500,17.9365997314453120,36.5449981689453100,237.8126983642578000,172.0211029052734400,17.9330902099609380,31.4018001556396500,50,112,101,82,66,15435,2147490349,2147785216,2147611894,2147796105,2147311332,2147489088,2147744045,2148241408,3335,7,13,50308
1338221834,5803,265.4800109863281000,17.9825000762939450,36.5500984191894500,237.4553985595703000,170.4880981445312500,17.9797706604003900,31.3982391357421880,50,112,101,81,67,15431,2147492498,2147780160,2147604150,2147794889,2147315501,2147490578,2147739657,2148244160,284,7,13,19711
1338221982,5803,254.6399993896484400,18.0764999389648440,36.5617980957031250,236.3589019775390600,167.4093933105468800,18.0735206604003900,31.4089298248291000,50,112,101,80,68,15431,2147492141,2147798317,2147646994,2147790025,2147316105,2147502445,2147763483,2148246189,608,7,13,34191
1338222107,5800,243.2700042724609400,18.1352005004882800,36.5606002807617200,234.1273956298828000,165.4727020263672000,18.1325092315673830,31.4902801513671880,50,115,103,81,67,15428,2147492278,2147806738,2147674706,2147795986,2147315629,2147503250,2147783168,2148246445,1136,7,13,36593
1338222222,5805,232.4400024414062500,18.2033004760742200,36.5691986083984400,232.9116973876953000,163.2064971923828000,18.2015399932861330,31.5187301635742200,50,114,101,82,67,15424,2147493120,2147825801,2147734482,2147796370,2147316361,2147518939,2147814866,2148247222,1113,7,13,19451
1338222339,5804,221.2500000000000000,18.3281993865966800,36.5643997192382800,230.9076995849609400,159.0052032470703000,18.3295307159423830,31.5599594116210940,50,115,103,83,67,15421,2147497444,2147862116,2147811483,2147796224,2147317129,2147540150,2147862390,2148251227,1775,7,12,48984
1338222454,5804,210.0399932861328000,18.5983009338378900,36.5984992980957000,228.1376037597656200,150.3538970947265600,18.5932006835937500,31.5800800323486330,51,117,101,82,66,15417,2147508032,2147912027,2147927478,2147796224,2147321801,2147571538,2147926299,2148255360,2731,7,12,17256
1338222569,5803,198.5599975585937500,18.9542007446289060,36.5970993041992200,232.9801940917968800,138.8535003662109400,18.9439392089843750,31.1894397735595700,51,116,103,81,66,15415,2147523702,2147986130,2148086701,2147795885,2147331821,2147619008,2148026340,2148258669,2383,7,12,36876
1338222644,5803,191.3600006103515600,19.1466007232666000,36.6072006225585940,241.3751983642578000,132.2154998779297000,19.1465301513671880,30.7060909271240230,51,116,104,82,65,15415,2147532836,2148049545,2148218761,2147795501,2147330907,2147660306,2148104438,2148262226,2717,7,13,25347
1338222699,5804,186.4499969482422000,19.2341003417968750,36.6040992736816400,248.0680999755859400,129.5686950683593800,19.2273292541503900,30.3677501678466800,51,119,102,83,64,15416,2147542656,2148090761,2148307794,2147794596,2147331382,2147693622,2148161280,2148265133,3094,7,13,6480
1338222754,5806,181.6100006103515600,19.2752990722656250,36.5988006591796900,253.5294036865234400,128.1847991943359400,19.2695903778076170,30.1091499328613280,51,121,104,82,64,15412,2147559222,2148155574,2148439625,2147797842,2147339739,2147741074,2148241545,2148269284,3556,7,12,7306
1338222809,5804,176.7100067138672000,19.3264999389648440,36.6026992797851560,257.0090026855469000,126.3868026733398400,19.3244991302490230,29.9360103607177730,53,122,103,84,65,15409,2147573330,2148221833,2148580781,2147795072,2147355300,2147797028,2148337947,2148274230,348,7,13,9923
1338222864,5802,171.9600067138672000,19.3444004058837900,36.6020011901855500,259.3008117675781000,125.7386016845703100,19.3442993164062500,29.8301601409912100,53,119,103,83,63,15413,2147595044,2148303661,2148744649,2147796672,2147360749,2147854473,2148437129,2148281353,460,7,12,32457
1338222919,5804,167.3099975585937500,19.3584995269775400,36.6004981994628900,260.4862060546875000,125.4022979736328100,19.3545703887939450,29.7757205963134770,56,120,105,84,62,15406,2147623442,2148402368,2148941302,2147800411,2147371382,2147923968,2148564315,2148287945,424,7,12,62041
1338222996,5804,161.4199981689453000,19.3644008636474600,36.6002006530761700,261.5140991210937500,125.1817016601562500,19.3613090515136720,29.7298393249511720,57,126,103,84,63,15412,2147661924,2148550162,2149238912,2147797787,2147396489,2148028854,2148750336,2148299547,497,7,13,55382
1338223051,5805,157.8099975585937500,19.3668994903564450,36.5992012023925800,261.5313110351562500,125.0894012451171900,19.3641300201416000,29.7280006408691400,59,123,104,84,64,15408,2147692854,2148653156,2149440630,2147799195,2147414482,2148103314,2148875090,2148307867,649,7,12,59857
1338223106,5804,154.3999938964843800,19.3638992309570300,36.5978012084960940,261.3207092285156000,125.3019027709961000,19.3576393127441400,29.7394695281982420,60,120,103,83,63,15400,2147720612,2148739876,2149607899,2147801462,2147424804,2148160173,2148977938,2148313005,814,7,13,12205
1338223173,5806,150.4600067138672000,19.3624992370605470,36.5954017639160160,260.3049011230469000,125.1946029663086000,19.3609104156494140,29.7807807922363280,61,122,104,85,65,15403,2147767122,2148877696,2149876955,2147801828,2147449956,2148252260,2149139904,2148324800,837,7,13,34028
1338223252,5801,146.0399932861328000,19.3721008300781250,36.5965995788574200,260.2590942382812500,124.9167022705078100,19.3694000244140620,29.7789802551269530,65,125,104,82,63,15394,2147828352,2149057188,2150221293,2147804260,2147481088,2148368850,2149334016,2148338989,1011,7,13,12728
1338223330,5801,142.3500061035156200,19.3787994384765620,36.5978012084960940,260.8276062011719000,124.6791000366211000,19.3766593933105470,29.7521095275878900,69,125,105,83,65,15392,2147883721,2149205056,2150489636,2147810624,2147513152,2148459904,2149497728,2148346468,1105,7,13,27633
1338223433,5805,139.1499938964843800,19.3845005035400400,36.5990982055664060,261.3176879882812500,124.4962005615234400,19.3822498321533200,29.7291202545166000,71,127,104,83,64,15382,2147943570,2149356900,2150764498,2147811209,2147543680,2148553865,2149642377,2148355657,1116,7,13,29836
1338223584,5804,135.0700073242187500,19.3880996704101560,36.5975990295410160,261.6781921386719000,124.4039001464843800,19.3850708007812500,29.7128391265869140,76,126,107,84,64,15381,2148046080,2149591378,2151170733,2147816978,2147585069,2148691291,2149861942,2148369645,1258,7,12,60557
1338223707,5805,130.5099945068359400,19.3929004669189450,36.5984992980957000,262.0705871582031000,124.2429962158203100,19.3899803161621100,29.6945304870605470,80,131,105,85,64,15374,2148213997,2149980397,2151824457,2147825088,2147673051,2148906624,2150208914,2148399094,1368,7,13,10720
1338223798,5803,126.3000030517578100,19.3950996398925780,36.5965995788574200,262.0111083984375000,124.1753005981445300,19.3920497894287100,29.6961002349853500,84,131,105,85,64,15366,2148397257,2150390957,2152501211,2147838948,2147758482,2149133824,2150560237,2148423954,1417,7,13,64242
1338223877,5803,122.4899978637695300,19.3987007141113280,36.5965003967285160,262.3929138183594000,124.0270004272461000,19.3965797424316400,29.6782798767089840,92,136,108,85,64,15358,2148626057,2150870262,2153288128,2147851428,2147858916,2149380790,2150952082,2148452617,1791,7,13,30619
1338223958,5802,118.3899993896484400,19.4015998840332030,36.5956001281738300,262.9262084960937500,123.9268035888671900,19.3996391296386720,29.6547393798828120,98,137,106,86,65,15352,2148925833,2151496896,2154308928,2147873225,2147987821,2149701750,2151440082,2148494985,2198,7,12,21895
1338224037,5805,114.1399993896484400,19.4041996002197270,36.5947990417480500,263.2532958984375000,123.8602981567382800,19.4016704559326170,29.6402397155761720,105,140,108,87,63,15333,2149291465,2152209526,2155437659,2147901156,2148152914,2150043355,2151971958,2148540498,2508,7,13,909
1338224104,5804,110.3499984741211000,19.4032001495361330,36.5951995849609400,263.9927062988281000,123.8634033203125000,19.4015808105468750,29.6097202301025400,116,141,107,86,63,15333,2149717750,2153038482,2156737920,2147934802,2148329371,2150414372,2152543021,2148591113,2969,7,13,32403
1338224171,5803,106.4899978637695300,19.4016990661621100,36.5945014953613300,265.0405883789062500,123.9035034179687500,19.4003505706787100,29.5669403076171880,129,142,107,84,63,15305,2150288155,2154123026,2158424429,2147987666,2148556480,2150893897,2153277723,2148659648,3156,7,13,29700
1338224252,5805,101.8700027465820300,19.4095993041992200,36.5932006835937500,265.6610107421875000,123.6706008911132800,19.4074707031250000,29.5384807586669920,145,144,106,87,63,15288,2151154651,2155725275,2160762066,2148063113,2148912082,2151533787,2154206646,2148757641,53,7,12,32732
1338224319,5805,98.1800003051757800,19.4186000823974600,36.5932006835937500,265.7408142089844000,123.2313003540039000,19.4208908081054700,29.5296707153320300,150,166,108,86,63,15268,2152144027,2157541824,2163354368,2148150336,2149301668,2152234989,2155216722,2148871259,388,7,13,36619
1338224374,5804,95.2600021362304700,19.4298000335693360,36.5926017761230500,267.2591857910156000,122.9903030395507800,19.4282493591308600,29.4643592834472660,160,150,109,87,64,15263,2153137088,2159319369,2165757924,2148231963,2149656932,2152854738,2156081536,2148973494,651,7,13,64155
1338224429,5805,92.4700012207031200,19.4375000000000000,36.5927009582519500,268.1145935058594000,122.7293014526367200,19.4362201690673830,29.4262008666992200,169,150,111,86,64,15223,2154567405,2161871451,2169175350,2148354477,2150190674,2153744777,2157325750,2149127332,845,7,13,49033
1338224484,5804,89.7500000000000000,19.4503002166748050,36.5946998596191400,269.7131042480469000,122.3191986083984400,19.4487590789794920,29.3563594818115230,150,149,109,87,66,15221,2156175085,2164677513,2172659172,2148490102,2150782244,2154723227,2158608320,2149286445,1054,7,13,4483
1338224539,5803,87.1800003051757800,19.4550991058349600,36.5950012207031250,271.0076904296875000,122.1175003051757800,19.4549198150634770,29.3018093109130860,141,153,106,88,64,15231,2158028233,2167782089,2176406765,2148643062,2151502829,2155890203,2160073325,2149481590,1050,7,13,13379
1338224596,5803,84.5699996948242200,19.4671001434326170,36.5947990417480500,272.2463989257812500,121.7901992797851600,19.4649200439453120,29.2480297088623050,125,153,111,86,64,15237,2160275309,2171466541,2180665280,2148830326,2152422966,2157386240,2161880996,2149708434,1165,7,13,29892
1338224651,5803,82.0899963378906200,19.4799003601074220,36.5947990417480500,272.8945007324219000,121.3607025146484400,19.4780406951904300,29.2167301177978500,119,153,110,86,64,15223,2162905718,2175519881,2185019328,2149051995,2153512713,2159147894,2163924690,2149966811,1197,7,13,28548
1338224706,5802,79.6999969482421900,19.4993991851806640,36.5947990417480500,274.0062866210937500,120.6604003906250000,19.4994392395019530,29.1638107299804700,112,153,109,87,65,15216,2165867090,2180036909,2189960173,2149306925,2154805915,2161224996,2166331657,2150262016,1166,7,13,10969
1338224761,5804,77.3199996948242200,19.5254993438720700,36.5946006774902340,275.0517883300781000,119.8986968994140600,19.5227203369140620,29.1130294799804700,100,154,109,90,63,15205,2168909668,2184445430,2194634075,2149609956,2156285174,2163531364,2168847680,2150560502,1137,7,13,16511
1338224816,5804,74.9700012207031200,19.5391998291015620,36.5951995849609400,276.3106994628906000,119.3973007202148400,19.5380401611328120,29.0570297241210940,95,153,114,89,64,15198,2172596918,2189658029,2200109449,2149978377,2158127506,2166409846,2171948589,2150907236,1170,7,13,9702
1338224871,5801,72.5699996948242200,19.5422000885009770,36.5956993103027340,277.0108032226562500,119.2285995483398400,19.5431900024414060,29.0276298522949220,92,151,113,88,63,15188,2176620498,2195093632,2205540123,2150394605,2160145325,2169447186,2175082752,2151278372,1044,7,13,64643
1338224928,5803,70.0400009155273400,19.5573005676269530,36.5951004028320300,277.5426025390625000,118.7760009765625000,19.5570297241210940,29.0010700225830080,90,150,110,90,61,15186,2181474486,2201418084,2211824722,2150939629,2162650130,2173070957,2178763474,2151712905,1020,7,13,55567
1338224983,5798,67.6600036621093800,19.5877990722656250,36.5945014953613300,278.2430114746094000,117.7583999633789000,19.5881309509277340,28.9611206054687500,86,149,110,88,59,15177,2186459538,2207581540,2217562148,2151480658,2165324809,2176832822,2182354816,2152152155,1026,7,13,18486
1338225038,5801,65.3199996948242200,19.6319999694824220,36.5940017700195300,279.1943969726562500,116.2882003784179700,19.6330699920654300,28.9055595397949220,80,152,111,90,60,15173,2192086528,2214411565,2224202806,2152166957,2168350134,2181036525,2186393718,2152652909,966,7,13,18920
1338225093,5803,63.0999984741210940,19.7143993377685550,36.5943984985351560,280.2094116210937500,113.8140029907226600,19.7087097167968750,28.8353691101074220,74,149,110,89,58,15186,2198688996,2222495643,2232198857,2152999094,2172051766,2186132480,2191231698,2153232877,639,7,13,30829
1338225148,5805,60.9399986267089840,19.7437000274658200,36.5960998535156250,281.3168945312500000,112.4181976318359400,19.7513999938964840,28.7752304077148440,71,147,110,87,62,15200,2205051492,2229791222,2239240877,2153920320,2175766454,2191060333,2195804781,2153813440,270,7,13,45702
1338225203,5803,58.7599983215332000,19.8614006042480470,36.5946006774902340,281.9580078125000000,108.9729003906250000,19.8567790985107420,28.7074508666992200,70,148,111,87,59,15203,2212417261,2238121188,2247325275,2154992521,2180120237,2196750034,2200990893,2154473426,3488,7,13,50488
1338225260,5804,56.6899986267089840,20.0209999084472660,36.5954017639160160,281.9731140136719000,105.6539001464843800,19.9583301544189450,28.6652793884277340,66,146,108,87,61,15189,2219553846,2246050587,2255186834,2156198656,2184998820,2203070656,2206871597,2155254491,3555,7,13,37063
1338225315,5804,54.9500007629394500,20.0818004608154300,36.5961990356445300,281.7033081054687500,102.6361999511718800,20.0506896972656250,28.6376991271972660,66,145,111,86,62,15194,2226778267,2254753709,2264434148,2157501504,2189441115,2208740946,2212142637,2156001435,232,7,13,29770
1338225469,5804,51.6100006103515600,20.1814994812011720,36.5982017517089840,281.5148010253906000,98.3871994018554700,20.1807899475097660,28.5917701721191400,68,146,109,88,63,15206,2241289106,2271125028,2281636717,2160472402,2199754441,2221462354,2223833088,2157843017,802,7,13,7616
1338225550,5804,49.9300003051757800,20.3229999542236330,36.6036987304687500,280.8221130371094000,94.0623626708984400,20.3132705688476560,28.5641307830810550,67,165,110,90,63,15171,2248504173,2279705508,2291457014,2162347794,2204745984,2227622637,2229615579,2158783387,1003,7,13,43566
1338225654,5801,47.6899986267089840,20.5266990661621100,36.6004981994628900,279.2145080566406000,87.7281799316406200,20.5074195861816400,28.5466499328613280,64,149,110,87,58,15198,2217470884,2233707081,2235669385,2156756699,2191114176,2205471616,2203485677,2155233993,1057,7,13,51106
1338225735,5804,45.9300003051757800,20.7619991302490230,36.5881004333496100,276.8179016113281000,79.6014175415039000,20.7567195892334000,28.5377292633056640,63,144,109,89,60,15178,2267982875,2299205732,2309172288,2166835337,2223247899,2248394550,2246210523,2161143296,318,7,13,22563
1338225996,5802,43.7799987792968750,20.9559993743896500,36.5532989501953100,273.1144104003906000,73.0068130493164000,20.9592094421386720,28.5998802185058600,60,144,110,88,63,15192,2267851913,2294848978,2302166016,2167530084,2232877092,2257003227,2250569362,2161756736,2574,6,13,57102
1338226065,5801,41.5400009155273440,21.0405006408691400,36.5354003906250000,272.1944885253906000,70.2686233520507800,21.0433406829834000,28.6019096374511720,60,145,109,89,58,15193,2286465773,2316000740,2325538505,2173157302,2249203346,2275047131,2266020873,2164473682,1648,7,13,5013
1338226122,5804,39.5200004577636700,21.0792007446289060,36.5279998779296900,271.8391113281250000,68.8810272216796900,21.0859794616699220,28.5986595153808600,58,154,109,88,60,15194,2295298852,2324947949,2335421787,2177158784,2259846610,2286164635,2274885494,2166280621,1516,7,13,21362
1338226167,5800,37.8800010681152340,21.0977993011474600,36.5246009826660160,271.5049133300781000,68.0939636230468800,21.1101703643798830,28.6020393371582030,57,146,114,89,60,15201,2301886464,2330963602,2341468260,2180114322,2267648365,2293890779,2280772489,2167590765,1552,7,13,39488
1338226222,5802,35.5499992370605500,21.1287994384765620,36.5236015319824200,271.1337890625000000,66.8554611206054700,21.1482505798339840,28.6013107299804700,58,145,108,90,63,15200,2314791104,2343487597,2354920484,2186610176,2281181924,2307409490,2291601316,2170311872,1568,8,13,4410
1338226255,5804,33.7200012207031250,21.1392002105712900,36.5233001708984400,271.0910949707031000,66.7123565673828100,21.1526508331298830,28.6012001037597660,57,144,112,89,59,15209,2322276260,2349010505,2359155026,2190696393,2293822573,2320148406,2301743808,2172613677,1691,7,13,31772
1338226288,5804,31.7399997711181640,21.1537990570068360,36.5233001708984400,271.0119934082031000,66.3448410034179700,21.1639404296875000,28.5998497009277340,56,144,111,89,61,15206,2339206546,2366945782,2380026605,2199023616,2308024914,2334902198,2313694674,2175632429,1859,7,12,20861
1338226321,5804,29.7500000000000000,21.1672992706298830,36.5228004455566400,270.9206848144531000,65.8945083618164000,21.1777896881103500,28.5976600646972660,56,145,110,89,61,15209,2353682907,2381575945,2395435794,2207500882,2324314633,2350630710,2326704594,2178881636,1849,7,12,10705
1338226366,5803,27.1299991607666000,21.1846008300781250,36.5224990844726560,270.9887084960937500,65.2633132934570300,21.1972007751464840,28.5871391296386720,56,145,110,87,59,15192,2369468571,2395856466,2411627556,2219627584,2348801380,2375626889,2347096438,2184346331,1724,7,12,25380
1338226399,5804,25.2800006866455080,21.1977996826171880,36.5222015380859400,270.7882995605469000,64.7557373046875000,21.2128105163574220,28.5888195037841800,55,145,112,89,52,15211,2384648228,2410761645,2427459620,2229904246,2363153801,2388860800,2357451108,2188046464,1521,7,13,24573
